Beatrice, NE

4:31 AM CST on December 10, 2019 (GMT -0600)
Beatrice Municipal

Weather History for KBIE - November, 2019

Change the Weather History Date:

Monday, November 18, 2019

  Actual Average Record
Temperature  
Mean Temperature 50 °F -  
Max Temperature 69 °F 53 °F 72 °F (1953)
Min Temperature 32 °F 33 °F 3 °F (2014)
Degree Days  
Heating Degree Days 14    
Moisture  
Dew Point 35 °F    
Average Humidity 61    
Maximum Humidity 87    
Minimum Humidity 30    
Precipitation  
Precipitation 0.00 in - - ()
Sea Level Pressure  
Sea Level Pressure 29.76 in    
Wind  
Wind Speed 6 mph ()    
Max Wind Speed 26 mph    
Max Gust Speed 33 mph    
Visibility 10.0 miles    
Events      
Averages and records for this station are not official NWS values.
T = Trace of Precipitation, MM = Missing Value Source: Averaged Metar Reports

Daily Weather History Graph

Daily Weather History Graph

Search for Another Location

Airport or City:

Astronomy

Nov. 18, 2019 Rise Set
Actual Time 7:16 AM CST 5:07 PM CST
Civil Twilight 6:46 AM CST 5:37 PM CST
Nautical Twilight 6:13 AM CST 6:10 PM CST
Astronomical Twilight 5:41 AM CST 6:42 PM CST
Moon 10:54 PM CST (11/18) 12:48 PM CST (11/18)
Length of Visible Light 10h 50m
Length of Day
9h 51m
Waning Gibbous, 63% of the Moon is Illuminated
Nov 18
Waning Gibbous
Nov 19
Last Quarter
Nov 26
New
Dec 4
First Quarter
Dec 11
Full

Hourly Weather History & Observations

Time (CST) Temp. Windchill Dew Point Humidity Pressure Visibility Wind Dir Wind Speed Gust Speed Precip Events Conditions
12:15 AM 32.2 °F - 28.6 °F 87% 29.88 in 10.0 mi Calm Calm - N/A   Clear
12:35 AM 32.0 °F - 28.4 °F 87% 29.88 in 10.0 mi Calm Calm - N/A   Clear
12:55 AM 32.0 °F - 28.4 °F 87% 29.87 in 10.0 mi Calm Calm - N/A   Clear
1:15 AM 32.0 °F - 28.6 °F 87% 29.86 in 10.0 mi Calm Calm - N/A   Clear
1:35 AM 32.9 °F - 29.1 °F 86% 29.85 in 10.0 mi Calm Calm - N/A   Clear
1:55 AM 32.7 °F 29.6 °F 28.8 °F 85% 29.83 in 10.0 mi SSE 3.5 mph - N/A   Clear
2:15 AM 36.7 °F 32.0 °F 30.4 °F 78% 29.83 in 10.0 mi SSE 5.8 mph - N/A   Clear
2:35 AM 37.8 °F 33.3 °F 30.7 °F 76% 29.82 in 10.0 mi SSE 5.8 mph - N/A   Clear
2:55 AM 37.8 °F 33.3 °F 30.9 °F 76% 29.80 in 10.0 mi SSE 5.8 mph - N/A   Clear
3:35 AM 38.5 °F 34.1 °F 30.7 °F 74% 29.78 in 10.0 mi South 5.8 mph - N/A   Scattered Clouds
3:55 AM 39.4 °F 36.1 °F 31.1 °F 72% 29.76 in 10.0 mi South 4.6 mph - N/A   Scattered Clouds
4:15 AM 39.6 °F 36.3 °F 31.1 °F 72% 29.77 in 10.0 mi South 4.6 mph - N/A   Scattered Clouds
4:35 AM 40.1 °F 36.1 °F 31.6 °F 72% 29.76 in 10.0 mi South 5.8 mph - N/A   Mostly Cloudy
4:55 AM 40.6 °F 38.6 °F 32.0 °F 71% 29.76 in 10.0 mi SSE 3.5 mph - N/A   Overcast
5:35 AM 41.5 °F - 32.0 °F 69% 29.75 in 10.0 mi Calm Calm - N/A   Overcast
5:55 AM 39.7 °F - 32.9 °F 77% 29.75 in 10.0 mi Calm Calm - N/A   Overcast
6:15 AM 41.2 °F 38.2 °F 32.4 °F 71% 29.74 in 10.0 mi South 4.6 mph - N/A   Overcast
6:35 AM 40.5 °F - 32.0 °F 72% 29.74 in 10.0 mi Calm Calm - N/A   Overcast
6:55 AM 39.6 °F - 32.0 °F 74% 29.74 in 10.0 mi Calm Calm - N/A   Overcast
7:15 AM 39.9 °F 37.8 °F 32.4 °F 74% 29.74 in 10.0 mi South 3.5 mph - N/A   Overcast
7:35 AM 40.5 °F 37.3 °F 32.4 °F 73% 29.74 in 10.0 mi South 4.6 mph - N/A   Overcast
7:55 AM 41.7 °F 39.8 °F 32.9 °F 71% 29.74 in 10.0 mi SSW 3.5 mph - N/A   Overcast
8:15 AM 42.8 °F - 32.4 °F 67% 29.74 in 10.0 mi Calm Calm - N/A   Mostly Cloudy
8:35 AM 43.0 °F 40.3 °F 32.4 °F 66% 29.74 in 10.0 mi SW 4.6 mph - N/A   Mostly Cloudy
8:55 AM 45.3 °F 42.3 °F 32.5 °F 61% 29.74 in 10.0 mi SW 5.8 mph - N/A   Overcast
9:15 AM 46.8 °F - 32.9 °F 59% 29.75 in 10.0 mi West 6.9 mph - N/A   Overcast
9:35 AM 48.6 °F - 32.9 °F 55% 29.74 in 10.0 mi West 6.9 mph - N/A   Overcast
9:55 AM 49.3 °F - 34.2 °F 56% 29.74 in 10.0 mi West 6.9 mph - N/A   Overcast
10:15 AM 50.9 °F - 35.1 °F 55% 29.75 in 10.0 mi WNW 6.9 mph - N/A   Overcast
10:35 AM 51.1 °F - 35.8 °F 56% 29.75 in 10.0 mi WNW 9.2 mph - N/A   Overcast
10:55 AM 52.2 °F - 36.7 °F 56% 29.75 in 10.0 mi WNW 6.9 mph - N/A   Overcast
11:15 AM 54.5 °F - 37.8 °F 53% 29.74 in 10.0 mi WNW 8.1 mph - N/A   Overcast
11:35 AM 56.1 °F - 38.5 °F 52% 29.73 in 10.0 mi WNW 6.9 mph - N/A   Overcast
11:55 AM 58.5 °F - 39.6 °F 49% 29.72 in 10.0 mi NW 9.2 mph - N/A   Overcast
12:15 PM 59.5 °F - 41.0 °F 50% 29.70 in 10.0 mi WNW 8.1 mph - N/A   Overcast
12:35 PM 61.7 °F - 42.8 °F 50% 29.71 in 10.0 mi West 10.4 mph - N/A   Overcast
12:55 PM 64.0 °F - 43.7 °F 48% 29.71 in 10.0 mi NW 15.0 mph - N/A   Scattered Clouds
1:35 PM 66.9 °F - 45.9 °F 47% 29.69 in 10.0 mi WNW 13.8 mph 23.0 mph N/A   Scattered Clouds
1:55 PM 67.1 °F - 46.4 °F 47% 29.68 in 10.0 mi NW 16.1 mph 24.2 mph N/A   Scattered Clouds
2:15 PM 68.0 °F - 46.4 °F 46% 29.68 in 10.0 mi WNW 19.6 mph 26.5 mph N/A   Scattered Clouds
2:35 PM 67.1 °F - 46.2 °F 47% 29.68 in 10.0 mi NW 15.0 mph - N/A   Scattered Clouds
2:55 PM 69.1 °F - 44.8 °F 42% 29.68 in 10.0 mi WNW 23.0 mph 29.9 mph N/A   Scattered Clouds
3:15 PM 68.9 °F - 42.1 °F 38% 29.68 in 10.0 mi NW 19.6 mph 27.6 mph N/A   Mostly Cloudy
3:35 PM 68.7 °F - 39.2 °F 34% 29.68 in 10.0 mi NW 19.6 mph 31.1 mph N/A   Mostly Cloudy
3:55 PM 68.2 °F - 35.4 °F 30% 29.69 in 10.0 mi NW 26.5 mph 33.4 mph N/A   Scattered Clouds
4:15 PM 67.1 °F - 35.8 °F 31% 29.69 in 10.0 mi NW 19.6 mph 26.5 mph N/A   Clear
4:35 PM 66.2 °F - 36.0 °F 33% 29.69 in 10.0 mi NW 16.1 mph 27.6 mph N/A   Clear
5:15 PM 61.5 °F - 36.5 °F 39% 29.71 in 10.0 mi NW 11.5 mph - N/A   Clear
5:35 PM 59.2 °F - 36.0 °F 42% 29.71 in 10.0 mi WNW 9.2 mph - N/A   Clear
5:55 PM 57.4 °F - 35.6 °F 44% 29.71 in 10.0 mi WNW 9.2 mph - N/A   Clear
6:15 PM 56.3 °F - 35.6 °F 46% 29.72 in 10.0 mi WNW 8.1 mph - N/A   Clear
6:35 PM 57.4 °F - 35.6 °F 44% 29.73 in 10.0 mi NW 12.7 mph - N/A   Clear
7:35 PM 53.1 °F - 35.8 °F 52% 29.76 in 10.0 mi NW 9.2 mph - N/A   Clear
7:55 PM 52.9 °F - 36.5 °F 54% 29.77 in 10.0 mi NW 10.4 mph - N/A   Clear
8:15 PM 52.5 °F - 36.9 °F 55% 29.78 in 10.0 mi NW 10.4 mph - N/A   Clear
8:35 PM 51.1 °F - 36.9 °F 58% 29.79 in 10.0 mi NW 10.4 mph - N/A   Clear
8:55 PM 48.0 °F - 36.3 °F 64% 29.80 in 10.0 mi NW 9.2 mph - N/A   Clear
9:15 PM 47.7 °F - 36.3 °F 65% 29.81 in 10.0 mi WNW 9.2 mph - N/A   Clear
9:35 PM 46.9 °F - 35.6 °F 65% 29.82 in 10.0 mi West 8.1 mph - N/A   Clear
9:55 PM 45.5 °F 40.8 °F 34.9 °F 66% 29.83 in 10.0 mi WNW 9.2 mph - N/A   Clear
10:15 PM 44.6 °F 40.2 °F 34.7 °F 68% 29.83 in 10.0 mi WNW 8.1 mph - N/A   Clear
10:35 PM 44.2 °F 38.8 °F 34.7 °F 69% 29.84 in 10.0 mi West 10.4 mph - N/A   Clear
10:55 PM 44.2 °F 39.2 °F 34.7 °F 69% 29.85 in 10.0 mi WNW 9.2 mph - N/A   Clear
11:35 PM 43.3 °F 38.6 °F 35.4 °F 74% 29.85 in 10.0 mi NW 8.1 mph - N/A   Clear
11:55 PM 41.7 °F 36.7 °F 34.7 °F 76% 29.85 in 10.0 mi NW 8.1 mph - N/A   Clear